Location: NovaLab Observatory
(42.8167°N, 71.2500°W)
Time: 15:15:50
(UTC-04:00)

Daily predictions for brighter satellites

Satellite Brightness Start Highest point End
(mag) Time Altitude Azimuth Time Altitude Azimuth Time Altitude Azimuth
Cosmos 1943 Rocket 2.2 19:02:40 10° NNW 19:08:13 63° ENE 19:13:46 10° SE
Cosmos 1898 Rocket 3.5 19:04:00 10° NNW 19:09:10 62° ENE 19:14:16 10° SSE
ALOS 2.3 19:04:51 10° SSE 19:09:29 69° ENE 19:14:08 10° N
EXPRESS MD2 4.5 19:11:09 10° W 19:13:19 26° SSW 19:16:30 10° SSE
Cosmos 1814 Rocket 4.4 19:09:13 10° S 19:14:00 40° ESE 19:18:47 10° NE
Meteor 2-5 Rocket 4.2 19:09:21 10° N 19:14:55 42° ENE 19:20:21 10° SE
SAR-Lupe-3 4.5 19:12:03 10° NNE 19:15:39 79° ESE 19:19:13 10° S
USA 81 4.4 19:13:06 10° N 19:18:09 43° E 19:23:09 10° SSE
Lacrosse 5 3.0 19:13:26 10° WNW 19:18:14 44° SW 19:23:02 10° SSE
Cosmos 990 Rocket 4.2 19:17:02 10° N 19:22:05 51° ENE 19:27:05 10° SE
Cosmos 2084 4.3 19:18:57 10° S 19:22:25 27° ESE 19:25:45 10° ENE
FREGAT/IRIS 2.7 19:20:43 10° SSE 19:23:41 56° ENE 19:26:41 10° N
H-2A R/B 2.9 19:22:56 10° SSE 19:26:31 49° ENE 19:30:09 10° N
Cosmos 2150 Rocket 4.1 19:22:05 10° NNW 19:27:21 59° ENE 19:32:40 10° SSE
Cosmos 2228 3.4 19:24:53 10° SSE 19:28:59 40° E 19:33:03 10° NNE
Cosmos 2058 Rocket 3.3 19:25:52 10° SSE 19:30:00 45° E 19:34:11 10° NNE
Cosmos 1953 Rocket 3.5 19:26:39 10° N 19:30:59 71° E 19:35:16 10° SSE
Cosmos 1606 Rocket 3.5 19:26:41 10° S 19:31:02 80° E 19:35:23 10° N
Envisat 4.1 19:28:43 10° ESE 19:32:49 25° ENE 19:36:56 10° N
Geosat 4.5 19:29:09 10° SSE 19:34:08 65° WSW 19:39:09 10° NNW
Cosmos 332 Rocket 4.3 19:29:52 10° SSW 19:34:44 67° WNW 19:39:36 10° NNE
COSMOS 2406 4.1 19:31:48 10° SSE 19:36:22 25° ESE 19:40:58 10° NE
ATLAS CENTAUR R/B 3.8 19:20:29 10° NW 19:37:13 75° NE 19:42:09 13° ESE
Cosmos 1766 4.3 19:34:15 10° SE 19:37:26 24° E 19:40:38 10° NE
FengYun 1-2 T 4.2 19:32:27 10° SSE 19:38:03 76° ENE 19:43:38 10° N
Cosmos 389 Rocket 2.7 19:36:18 10° SSW 19:39:48 72° W 19:43:18 10° N
Cosmos 371 Rocket 3.7 19:35:45 10° SSW 19:40:36 70° WNW 19:45:30 10° NNE
Cosmos 1939 Rocket 4.5 19:42:24 15° E 19:43:11 16° ENE 19:45:37 10° NNE
Cosmos 1707 2.7 19:40:44 10° N 19:44:41 87° E 19:48:36 10° S
FENGYUN 3A 4.3 19:40:50 10° S 19:46:06 59° W 19:51:25 10° NNW
Cosmos 2369 Rocket 3.7 19:41:30 10° NW 19:46:41 38° WSW 19:51:49 10° S
Cosmos 1656 Rocket 3.8 19:43:19 10° NNW 19:48:55 59° ENE 19:54:05 12° SE
Meteor 2-13 Rocket 4.4 19:43:59 10° S 19:50:04 78° E 19:56:09 10° N
Cosmos 2298 Rocket 4.2 19:46:07 10° NNW 19:51:28 78° WSW 19:56:47 10° SSE
USA 229 DEB 4.2 19:48:10 10° NW 19:55:17 67° WSW 20:02:32 10° SSE
Cosmos 1937 Rocket 3.8 19:49:58 10° NNW 19:55:18 73° WSW 20:00:32 10° S
USA 229 4.2 19:48:17 10° NW 19:55:23 67° WSW 20:02:38 10° SSE
Cosmos 841 Rocket 3.4 19:50:21 10° S 19:55:24 61° ESE 20:00:29 10° NNE
Cosmos 2181 Rocket 4.3 19:51:32 10° NNW 19:57:42 70° W 20:03:47 10° S
Cosmos 1340 Rocket 3.9 19:54:11 10° NNW 19:58:06 48° W 20:02:02 10° S
NOSS 3-1 (A) 4.2 19:52:22 10° NNW 19:59:50 61° NE 20:06:04 19° SE
In-Cosmos 22 4.3 20:03:25 10° N 20:09:01 60° ENE 20:14:06 13° SSE
NOSS 3-1 (C) 4.0 20:02:38 10° NW 20:10:15 85° NE 20:17:12 17° SE
Cosmos 2154 Rocket 4.3 20:05:52 10° SSE 20:11:37 42° E 20:17:26 10° NNE
HJ-1C 4.4 20:08:35 10° S 20:11:49 47° W 20:15:05 10° NNW
Cosmos 1356 Rocket 3.4 20:07:58 10° N 20:12:17 90° ENE 20:16:31 11° S
Cosmos 1674 4.5 20:10:28 10° NNE 20:12:05 17° NE 20:12:05 17° NE
Cosmos 1378 4.5 20:11:57 10° NNW 20:15:32 41° W 20:19:05 10° SSW
Cosmos 1805 3.7 20:15:50 37° E 20:15:50 37° E 20:19:12 10° NNE
Cosmos 1763 Rocket 3.9 20:12:26 10° SSW 20:17:30 65° WNW 20:22:38 10° NNE
Cosmos 2074 Rocket 3.9 20:11:35 10° S 20:17:48 88° E 20:24:03 10° N
Helios 1A 4.5 20:20:54 21° NE 20:20:54 21° NE 20:23:27 10° NNE
CZ-2D R/B 3.4 20:16:53 13° S 20:20:12 73° W 20:24:02 10° NNW
YAOGAN 6 4.0 20:21:29 24° NE 20:21:29 24° NE 20:23:36 10° N
Cosmos 540 Rocket 3.4 20:18:57 10° S 20:23:55 55° ESE 20:28:54 10° NNE
Cosmos 1544 2.8 20:23:42 18° S 20:26:18 80° E 20:29:56 10° N
Resurs 1-3 3.5 20:24:24 20° SSE 20:27:22 86° WSW 20:31:48 10° NNW
Meteor 1-24 Rocket 3.9 20:22:57 10° NNW 20:28:58 78° W 20:34:48 10° S
Cosmos 1953 4.4 20:32:26 16° NE 20:32:26 16° NE 20:33:24 10° NNE
Cosmos 304 Rocket 4.1 20:26:43 10° SSW 20:31:29 68° WNW 20:36:17 10° NNE
Spot 2 Rocket 3.6 20:35:49 20° S 20:39:24 75° WSW 20:44:27 10° NNW
GEOS 3 Rocket 3.6 20:36:01 10° NE 20:41:23 63° SE 20:46:43 10° SSW
Cosmos 836 Rocket 4.4 20:37:15 10° SSW 20:42:33 85° ESE 20:47:51 10° NNE
Resurs 01 Rocket 2.3 20:40:30 17° S 20:43:44 53° W 20:48:05 10° NNW
Nadezhda 3 Rocket 3.9 20:37:55 10° N 20:44:16 75° E 20:47:19 32° SSE
Milstar 3 Cent rocket 4.2 20:45:14 10° SSW 20:45:32 11° S 20:45:32 11° S
USA 186 4.0 20:51:12 19° NW 20:51:12 19° NW 20:52:13 10° NW
GP-B 3.3 20:47:35 10° N 20:52:01 68° W 20:54:02 31° SSW
FALCON 9 R/B 3.0 20:49:47 10° WSW 20:53:30 38° S 20:53:49 38° SSE
SJ-11-01 4.2 20:53:42 67° SSE 20:54:19 90° SE 20:59:05 10° NNW
MOS 1-B Rocket 4.4 20:52:11 14° S 20:57:43 62° WSW 21:03:24 10° NNW
Cosmos 1980 Rocket 4.1 20:56:35 10° N 20:59:20 15° NE 20:59:20 15° NE
Cosmos 1697 Rocket 4.2 20:55:40 10° N 20:59:34 23° NE 20:59:34 23° NE
Cosmos 1125 Rocket 3.7 20:56:36 10° NNW 21:01:52 70° WSW 21:03:08 50° S
BREEZE-M DEB (TANK) 4.5 20:44:53 10° W 21:06:07 56° N 21:08:50 33° NE
Cosmos 1812 Rocket 4.3 21:04:33 22° SSW 21:07:11 52° WNW 21:11:34 10° N
H-2A R/B 3.7 21:11:12 20° NNE 21:11:12 20° NNE 21:13:20 10° N
ERS-1 Rocket 3.7 21:11:31 40° NNE 21:11:31 40° NNE 21:15:05 10° N
Envisat 4.1 21:08:43 21° SSW 21:11:36 41° W 21:16:25 10° NNW
Cosmos 1295 Rocket 4.3 21:15:32 72° SSE 21:16:12 82° E 21:22:18 10° N
Cosmos 1939 Rocket 4.2 21:18:19 37° WNW 21:18:19 37° WNW 21:21:29 10° NNW
Meteor 1-21 Rocket 4.2 21:13:13 10° NNW 21:19:00 81° W 21:19:25 75° SSW
COSMOS 2406 4.1 21:14:50 10° SW 21:20:20 49° WNW 21:25:55 10° NNE
SL-8 Rocket 4.2 21:22:36 53° NE 21:22:36 53° NE 21:27:24 10° NNE
NOAA 11 4.3 21:28:20 71° NNW 21:28:20 71° NNW 21:33:10 10° NNW
Gblst 52 Del rocket 4.5 21:26:41 10° WNW 21:34:05 86° NE 21:34:05 86° NE
ARGOS 3.9 21:38:32 44° N 21:38:32 44° N 21:42:15 10° N
Cosmos 1809 Rocket 4.5 21:38:26 74° NNW 21:38:26 74° NNW 21:44:03 10° N
Cosmos 2369 4.2 21:33:01 10° NNW 21:37:21 52° N 21:37:21 52° N
ATLAS 2AS CENTAUR R/B 3.1 21:34:15 10° NNW 21:42:12 58° NE 21:42:18 58° NE
USA 267 4.3 22:11:15 36° NNE 22:11:15 36° NNE 22:17:02 10° NW
Cosmos 2322 Rocket 4.5 22:27:13 10° N 22:28:46 16° N 22:28:46 16° N
Cosmos 1980 Rocket 4.2 22:39:01 10° NNW 22:41:06 24° NNW 22:41:06 24° NNW
